This is the latest recevied weather packets stored in our database for station/object IW8ELN-10. If no packets are shown the sender has not sent any weather packets the latest 10 day(s).
| Time | Temp. | Humidity | Pressure | Rain* | Wind** | Luminosity | Snow |
|---|---|---|---|---|---|---|---|
| 1778136191 | 14.44° C | 78% | 988 hPa | - | - | - | - |
| 1778132591 | 14.44° C | 79% | 988.5 hPa | - | - | - | - |
| 1778128991 | 14.44° C | 76% | 987.7 hPa | - | - | - | - |
| 1778125391 | 14.44° C | 79% | 987.2 hPa | - | - | - | - |
| 1778121787 | 14.44° C | 78% | 988 hPa | - | - | - | - |
| 1778118187 | 14.44° C | 77% | 987.8 hPa | - | - | - | - |
| 1778114587 | 14.44° C | 76% | 988 hPa | - | - | - | - |
| 1778110987 | 14.44° C | 73% | 988.3 hPa | - | - | - | - |
| 1778107386 | 14.44° C | 73% | 988.9 hPa | - | - | - | - |
| 1778103786 | 15° C | 73% | 988.9 hPa | - | - | - | - |
| 1778100186 | 15° C | 72% | 989.2 hPa | - | - | - | - |
| 1778096593 | 15° C | 67% | 989.2 hPa | - | - | - | - |
| 1778092986 | 15° C | 65% | 987.9 hPa | - | - | - | - |
| 1778089386 | 15° C | 64% | 987.5 hPa | - | - | - | - |
| 1778085786 | 16.11° C | 61% | 987.2 hPa | - | - | - | - |
| 1778078585 | 16.11° C | 63% | 986.7 hPa | - | - | - | - |
| 1778074986 | 15.56° C | 65% | 987 hPa | - | - | - | - |
| 1778071392 | 15.56° C | 65% | 987 hPa | - | - | - | - |
| 1778067785 | 15.56° C | 69% | 987.4 hPa | - | - | - | - |
| 1778064185 | 15° C | 67% | 987.7 hPa | - | - | - | - |
| 1778053392 | 13.89° C | 70% | 988.9 hPa | - | - | - | - |
| 1778049791 | 13.89° C | 71% | 988.5 hPa | - | - | - | - |
| 1778046191 | 13.89° C | 72% | 988.7 hPa | - | - | - | - |
| 1778042584 | 13.89° C | 70% | 988.5 hPa | - | - | - | - |
| 1778038984 | 13.89° C | 70% | 988.4 hPa | - | - | - | - |
* Rain since midnight (hover to see other rain measurements)
** Current wind speed in m/s (hover to see current wind gust speed)